Eastern Lake Erie: Past 24 Hour Conditions

 

Wiarton Airport

10:00 AM EDT 30 July 2014
This table is a summary of hourly weather conditions for the past 24 hours.
Date / Time
(EDT)
Wind(knots) Conditions Visibility(km) Pressure(kPa) Air tempC) Relative humidity(%) Dew pointC)
30 July 2014
10:00 SW 3 Cloudy 24 101.5 16 87 13
9:00 SW 5 Cloudy 19 101.4 15 94 14
8:00 SSW 5 Cloudy 16 101.4 14 97 13
7:00 SW 2 Fog 16 101.4 12 99 12
6:00 S 5 Fog Patches 19 101.4 11 99 11
5:00 WSW 5 Partly Cloudy 24 101.3 12 99 12
4:00 SSW 5 Clear 24 101.3 12 99 11
3:00 S 4 Clear 16 101.3 12 97 11
2:00 SW 5 Mainly Clear 16 101.3 13 99 13
1:00 SSW 6 Fog 5 101.3 13 99 13
0:00 SSW 6 Fog 6 101.3 13 99 13
29 July 2014
23:00 SSW 5 Fog 10 101.3 12 98 12
22:00 S 3 Mainly Clear 24 101.3 13 97 13
21:00 WSW 5 Mostly Cloudy 24 101.4 14 94 14
20:00 WSW 7 Partly Cloudy 24 101.3 16 84 13
19:00 SW 9 Mostly Cloudy 24 101.3 17 80 13
18:00 WSW 7 Mostly Cloudy 24 101.3 17 83 14
17:00 SW 9 Cloudy 24 101.3 17 81 13
16:00 WSW 11 Cloudy 24 101.3 16 83 13
15:00 WSW 10 Light Rainshower 24 101.3 15 88 13
14:00 SW 10 Cloudy 24 101.3 17 79 13
13:00 W 10 Light Rainshower 16 101.3 15 93 14
12:00 W 8 Light Rainshower 24 101.4 15 88 13
11:00 W 10 Cloudy 24 101.4 15 87 13
10:00 W 5 Cloudy 24 101.4 15 83 12
 
Map of Great Lakes - Lake Erie and Lake Ontario marine weather areas Egbert N Huron - 45003 W Erie - 45005 S Huron - 45008 Lake Ontario - 45012 Port Stanley - 45132 Prince Edward Point - 45135 Georgian Bay - 45137 Grimsby - 45139 Port Colborne - 45142 South Georgian Bay - 45143 Lake St Clair - 45147 South Lake Huron - 45149 Lake Simcoe - 45151 Lake Nipissing - 45152 North Channel - 45154 Ajax - 45159 Sault Ste. Marie Airport Greater Sudbury Airport North Bay Airport Gore Bay-Manitoulin Airport Great Duck Island Brockville Grenadier Island Kemptville Kingston Airport Collingwood Lagoon City Muskoka Airport Parry Sound Harbour Lake Simcoe Regional Airport Wiarton Airport Goderich Sarnia Chris Hadfield Airport Tobermory Harrow AAFC Port Weller St. Catharines Airport Southeast Shoal Vineland Station Welland-Pelham Windsor Airport Burlington Lift Bridge Cobourg Hamilton Munro Int'l Airport Oshawa Municipal Airport Point Petre Toronto City Centre Airport Toronto Pearson Int'l Airport CFB Trenton Peterborough Municipal Airport Killarney Western Islands CFB Borden Cove Island Long Point Port Colborne Erieau Point Pelee Toronto Buttonville Municipal Airport
Legend: buoyBuoy land stationLand Station » US Marine Weather